EW5956 Sibenik HR current weather conditions

sailwx.info

Wind from 251 at 7 knots gusting 10

Air temperature 31.7° C
Dewpoint 14.7° C

Last reported at 2020-Aug-11 13:01 UTC.
Time now 2020-Aug-11 13:43 UTC

Location: N 43°43' E 015°54'.
View on Google Maps.

See reports from other nearby stations

  
Tides and Currents Weather Stations Pressure Air Temp Water Temp Dewpoint Dewpoint Depression Visibility Wind Speed Wind Dir Waves Ship Positions
date/time (UTC)wind fromknots sea level pressurealtimeterstation pressurevisibilityair tempwater tempwave heightnotes
2020-Aug-11 13:01 251 7 gusting 10 31.7
2020-Aug-11 12:56 254 8 gusting 12 31.1
2020-Aug-11 12:51 231 6 gusting 11 32.2
2020-Aug-11 12:46 246 7 gusting 11 31.1
2020-Aug-11 12:41 241 5 gusting 6 31.1
2020-Aug-11 12:36 246 6 gusting 8 31.7
2020-Aug-11 12:31 239 6 gusting 10 31.1
2020-Aug-11 12:26 281 5 gusting 7 31.7
2020-Aug-11 12:21 287 7 gusting 10 30.6
2020-Aug-11 12:16 265 6 gusting 8 31.1
2020-Aug-11 12:11 223 3 gusting 8 32.2
2020-Aug-11 12:06 217 5 gusting 8 32.2
2020-Aug-11 12:01 231 6 gusting 12 31.7
2020-Aug-11 11:56 205 6 gusting 8 32.2
2020-Aug-11 11:51 226 6 gusting 10 31.1
2020-Aug-11 11:46 212 5 gusting 8 32.2
2020-Aug-11 11:41 209 2 gusting 6 32.8
2020-Aug-11 11:36 139 5 gusting 10 31.7
2020-Aug-11 11:31 222 7 gusting 11 31.1
2020-Aug-11 11:26 245 6 gusting 11 31.7
2020-Aug-11 11:21 250 4 gusting 11 31.7
2020-Aug-11 11:16 214 6 gusting 8 31.1
2020-Aug-11 11:11 206 4 gusting 6 32.2
2020-Aug-11 11:06 160 4 gusting 7 32.2
2020-Aug-11 11:01 253 7 gusting 11 30.6
2020-Aug-11 10:56 258 8 gusting 10 30.6
2020-Aug-11 10:51 250 6 gusting 10 30.6
2020-Aug-11 10:46 281 6 gusting 8 31.1
2020-Aug-11 10:41 269 5 gusting 8 31.1
2020-Aug-11 10:37 265 6 gusting 8 30.6
2020-Aug-11 10:31 250 7 gusting 8 30.6
2020-Aug-11 10:26 278 8 gusting 11 30.0
2020-Aug-11 10:21 288 8 gusting 11 30.0
2020-Aug-11 10:16 272 7 gusting 10 30.6
2020-Aug-11 10:11 262 6 gusting 8 31.1
2020-Aug-11 10:06 261 6 gusting 7 32.8
2020-Aug-11 10:01 257 2 gusting 7 32.8
2020-Aug-11 09:56 212 3 gusting 5 32.8
2020-Aug-11 09:51 215 0 gusting 6 31.7
2020-Aug-11 09:46 262 4 gusting 6 31.1
2020-Aug-11 09:41 262 3 gusting 7 31.1
2020-Aug-11 09:36 228 4 gusting 6 32.2
2020-Aug-11 09:31 149 1 gusting 4 33.3
2020-Aug-11 09:26 060 33.9
2020-Aug-11 09:21 189 1 gusting 5 32.2
2020-Aug-11 09:16 170 0 gusting 2 32.2
2020-Aug-11 09:11 166 0 gusting 4 33.3
2020-Aug-11 09:06 196 0 gusting 4 32.8
2020-Aug-11 09:01 194 32.8
2020-Aug-11 08:56 169 32.2
2020-Aug-11 08:51 167 1 gusting 2 32.2
2020-Aug-11 08:46 143 0 gusting 2 31.7
2020-Aug-11 08:41 177 1 gusting 2 31.7
2020-Aug-11 08:36 188 0 gusting 4 31.7
2020-Aug-11 08:31 162 0 gusting 4 31.7
2020-Aug-11 08:26 166 0 gusting 2 32.2
2020-Aug-11 08:21 204 1 gusting 4 31.7
2020-Aug-11 08:16 251 30.6
2020-Aug-11 08:11 228 0 gusting 2 31.1
2020-Aug-11 08:06 220 31.7
2020-Aug-11 08:01 254 30.6
2020-Aug-11 07:56 239 30.6
2020-Aug-11 07:51 244 0 gusting 1 30.0
2020-Aug-11 07:46 258 0 gusting 1 29.4
2020-Aug-11 07:41 287 0 gusting 2 29.4
2020-Aug-11 07:36 287 28.9
2020-Aug-11 07:31 251 2 gusting 4 28.3
2020-Aug-11 07:26 273 0 gusting 2 28.9
2020-Aug-11 07:21 290 0 gusting 2 28.9
2020-Aug-11 07:16 300 1 gusting 2 27.8
2020-Aug-11 07:11 305 1 gusting 2 28.3
2020-Aug-11 07:06 293 1 gusting 2 27.8
2020-Aug-11 07:01 301 2 gusting 4 27.2
2020-Aug-11 06:56 309 1 gusting 4 27.2
2020-Aug-11 06:51 306 2 gusting 2 26.7
2020-Aug-11 06:46 290 1 gusting 2 26.7
2020-Aug-11 06:41 263 0 gusting 1 26.7
2020-Aug-11 06:36 282 26.7
2020-Aug-11 06:31 282 26.1
2020-Aug-11 06:26 280 0 gusting 1 26.1
2020-Aug-11 06:21 262 26.1
2020-Aug-11 06:16 262 25.6
2020-Aug-11 06:11 261 25.6
2020-Aug-11 06:06 261 25.6
2020-Aug-11 06:01 261 25.0
2020-Aug-11 05:56 261 25.0
2020-Aug-11 05:51 261 24.4
2020-Aug-11 05:46 259 25.0
2020-Aug-11 05:41 258 24.4
2020-Aug-11 05:36 258 24.4
2020-Aug-11 05:31 258 24.4
2020-Aug-11 05:26 258 23.9
2020-Aug-11 05:21 258 23.9
2020-Aug-11 05:16 258 23.3
2020-Aug-11 05:11 258 23.3
2020-Aug-11 05:06 261 23.3
2020-Aug-11 05:01 275 22.8
2020-Aug-11 04:56 286 22.8
2020-Aug-11 04:51 283 1 gusting 1 22.8
2020-Aug-11 04:46 323 0 gusting 1 22.8
2020-Aug-11 04:41 054 23.3
2020-Aug-11 04:36 054 22.8
2020-Aug-11 04:31 054 22.8
2020-Aug-11 04:26 054 22.8
2020-Aug-11 04:21 054 22.2
2020-Aug-11 04:16 054 22.2
2020-Aug-11 04:11 054 22.2
2020-Aug-11 04:06 054 22.8
2020-Aug-11 04:01 054 22.8
2020-Aug-11 03:56 054 22.8
2020-Aug-11 03:51 054 22.8
2020-Aug-11 03:46 054 22.8
2020-Aug-11 03:41 054 22.8
2020-Aug-11 03:36 054 22.8
2020-Aug-11 03:31 054 22.8
2020-Aug-11 03:26 054 22.8
2020-Aug-11 03:21 054 22.8
2020-Aug-11 03:16 054 23.3
2020-Aug-11 03:11 053 23.3
2020-Aug-11 03:06 055 23.3
2020-Aug-11 03:01 124 23.3
2020-Aug-11 02:56 124 23.3
2020-Aug-11 02:51 124 23.9
2020-Aug-11 02:46 124 23.3
2020-Aug-11 02:41 129 23.3
2020-Aug-11 02:36 129 23.3
2020-Aug-11 02:31 129 23.3
2020-Aug-11 02:26 129 23.9
2020-Aug-11 02:21 129 23.9
2020-Aug-11 02:16 129 0 gusting 1 23.9
2020-Aug-11 02:11 128 23.9
2020-Aug-11 02:06 128 23.9
2020-Aug-11 02:01 128 23.9
2020-Aug-11 01:56 128 23.9
2020-Aug-11 01:51 128 23.9
2020-Aug-11 01:46 128 23.9
2020-Aug-11 01:41 127 23.3
2020-Aug-11 01:36 128 23.9
2020-Aug-11 01:31 128 23.9
2020-Aug-11 01:26 091 23.9
2020-Aug-11 01:21 041 23.9
2020-Aug-11 01:16 041 23.9
2020-Aug-11 01:11 041 23.9
2020-Aug-11 01:06 041 23.9
2020-Aug-11 01:01 041 23.9
2020-Aug-11 00:56 041 23.9
2020-Aug-11 00:51 041 23.9
2020-Aug-11 00:46 041 23.9
2020-Aug-11 00:41 041 24.4
2020-Aug-11 00:36 041 24.4
2020-Aug-11 00:31 041 24.4
2020-Aug-11 00:26 041 23.9
2020-Aug-11 00:21 041 23.9
2020-Aug-11 00:16 041 24.4
2020-Aug-11 00:11 041 24.4
2020-Aug-11 00:06 041 24.4
2020-Aug-11 00:01 041 25.0
2020-Aug-10 23:56 041 25.0
2020-Aug-10 23:51 041 25.0
2020-Aug-10 23:46 041 25.6
2020-Aug-10 23:41 041 25.0
2020-Aug-10 23:36 041 25.0
2020-Aug-10 23:31 038 0 gusting 2 25.0
2020-Aug-10 23:26 336 25.0
2020-Aug-10 23:21 336 25.0
2020-Aug-10 23:16 336 25.0
2020-Aug-10 23:11 327 25.0
2020-Aug-10 23:06 327 25.6
2020-Aug-10 23:01 327 25.6
2020-Aug-10 22:56 327 25.6
2020-Aug-10 22:51 327 25.6
2020-Aug-10 22:46 327 25.6
2020-Aug-10 22:36 327 25.6
2020-Aug-10 22:31 336 2 gusting 5 25.6
2020-Aug-10 22:26 294 25.0
2020-Aug-10 22:21 289 25.6
2020-Aug-10 22:16 289 25.0
2020-Aug-10 22:11 289 25.0
2020-Aug-10 22:06 289 25.0
2020-Aug-10 22:01 289 25.6
2020-Aug-10 21:56 289 0 gusting 1 25.6
2020-Aug-10 21:51 288 1 gusting 2 25.6
2020-Aug-10 21:46 294 1 gusting 2 26.1
2020-Aug-10 21:41 300 1 gusting 2 25.6
2020-Aug-10 21:36 298 1 gusting 2 25.0
2020-Aug-10 21:31 321 0 gusting 2 25.6
2020-Aug-10 21:26 099 26.1
2020-Aug-10 21:21 114 0 gusting 1 26.1
2020-Aug-10 21:16 127 26.1
2020-Aug-10 21:11 127 26.7
2020-Aug-10 21:06 127 26.7
2020-Aug-10 21:01 127 26.7
2020-Aug-10 20:56 139 1 gusting 2 26.7
2020-Aug-10 20:51 160 0 gusting 1 26.7
2020-Aug-10 20:46 294 26.7
2020-Aug-10 20:41 294 26.7
2020-Aug-10 20:36 296 26.7
2020-Aug-10 20:31 296 0 gusting 1 26.1
2020-Aug-10 20:26 290 26.1
2020-Aug-10 20:21 287 1 gusting 2 26.7
2020-Aug-10 20:16 128 27.2
2020-Aug-10 20:11 129 27.2
2020-Aug-10 20:06 129 27.2
2020-Aug-10 20:01 129 27.2
2020-Aug-10 19:56 129 27.2
2020-Aug-10 19:51 140 27.2
2020-Aug-10 19:46 159 0 gusting 1 27.2
2020-Aug-10 19:41 129 0 gusting 1 27.2
2020-Aug-10 19:36 126 27.2
2020-Aug-10 19:31 125 27.2
2020-Aug-10 19:26 127 0 gusting 2 27.2
2020-Aug-10 19:21 124 0 gusting 2 27.8
2020-Aug-10 19:16 143 0 gusting 2 27.8
2020-Aug-10 19:11 146 27.8
2020-Aug-10 19:06 152 0 gusting 1 27.8
2020-Aug-10 19:01 187 28.3
2020-Aug-10 18:56 187 28.3
2020-Aug-10 18:51 187 28.3
2020-Aug-10 18:46 187 28.3
2020-Aug-10 18:41 187 28.3
2020-Aug-10 18:36 187 28.3
2020-Aug-10 18:31 187 28.3
2020-Aug-10 18:26 187 28.9
2020-Aug-10 18:21 187 28.9
2020-Aug-10 18:16 194 28.9
2020-Aug-10 18:11 206 0 gusting 2 28.9
2020-Aug-10 18:06 181 29.4
2020-Aug-10 18:01 180 29.4
2020-Aug-10 17:56 196 29.4
2020-Aug-10 17:51 202 30.0
2020-Aug-10 17:46 202 30.0
2020-Aug-10 17:41 202 0 gusting 2 30.0
2020-Aug-10 17:36 194 0 gusting 2 30.6
2020-Aug-10 17:31 157 30.6
2020-Aug-10 17:26 224 30.6
2020-Aug-10 17:21 223 30.6
2020-Aug-10 17:16 225 1 gusting 4 30.6
2020-Aug-10 17:11 213 2 gusting 5 30.6
2020-Aug-10 17:06 233 5 gusting 7 30.0
2020-Aug-10 17:01 257 4 gusting 7 30.6
2020-Aug-10 16:56 187 1 gusting 5 31.1
2020-Aug-10 16:51 221 2 gusting 5 31.1
2020-Aug-10 16:46 220 4 gusting 6 31.1
2020-Aug-10 16:41 224 5 gusting 6 30.6
2020-Aug-10 16:36 243 6 gusting 6 31.1
2020-Aug-10 16:31 241 5 gusting 6 31.1
2020-Aug-10 16:26 242 3 gusting 6 31.1
2020-Aug-10 16:21 233 5 gusting 6 30.6
2020-Aug-10 16:16 222 3 gusting 6 31.1
2020-Aug-10 16:11 233 4 gusting 6 30.6
2020-Aug-10 16:06 249 3 gusting 6 30.6
2020-Aug-10 16:01 251 5 gusting 6 30.6
2020-Aug-10 15:56 248 4 gusting 6 30.6
2020-Aug-10 15:51 255 3 gusting 6 30.6
2020-Aug-10 15:46 251 3 gusting 5 31.1
2020-Aug-10 15:41 258 4 gusting 6 30.6
2020-Aug-10 15:36 259 4 gusting 7 30.6
2020-Aug-10 15:31 272 5 gusting 7 30.0
2020-Aug-10 15:26 255 5 gusting 8 30.0
2020-Aug-10 15:21 249 5 gusting 11 30.0
2020-Aug-10 15:16 251 7 gusting 11 30.0
2020-Aug-10 15:11 242 8 gusting 12 30.0
2020-Aug-10 15:06 239 6 gusting 11 30.6
2020-Aug-10 15:01 266 8 gusting 11 31.1
2020-Aug-10 14:56 248 7 gusting 10 30.6
2020-Aug-10 14:51 241 8 gusting 12 30.6
2020-Aug-10 14:46 245 11 gusting 13 30.0
2020-Aug-10 14:41 248 9 gusting 12 30.6
2020-Aug-10 14:36 237 8 gusting 11 30.6
2020-Aug-10 14:31 262 6 gusting 12 31.1
2020-Aug-10 14:26 265 10 gusting 11 30.6
2020-Aug-10 14:21 248 7 gusting 11 30.6
2020-Aug-10 14:16 259 9 gusting 12 30.0
2020-Aug-10 14:11 242 7 gusting 11 31.1
2020-Aug-10 14:06 241 8 gusting 11 30.6
2020-Aug-10 14:01 256 8 gusting 10 30.6
2020-Aug-10 13:56 220 6 gusting 8 31.7
2020-Aug-10 13:51 225 7 gusting 11 31.1
2020-Aug-10 13:46 245 8 gusting 12 30.6
2020-Aug-10 13:41 233 8 gusting 12 31.1
2020-Aug-10 13:36 243 7 gusting 12 31.1
2020-Aug-10 13:31 245 5 gusting 12 31.7
2020-Aug-10 13:26 250 9 gusting 13 30.6
2020-Aug-10 13:21 225 8 gusting 13 30.6
2020-Aug-10 13:16 220 10 gusting 13 30.6
2020-Aug-10 13:11 259 8 gusting 11 31.1
2020-Aug-10 13:06 256 10 gusting 13 30.6
2020-Aug-10 13:01 274 7 gusting 12 30.6
2020-Aug-10 12:56 247 7 gusting 12 30.6
2020-Aug-10 12:51 221 7 gusting 11 31.1
2020-Aug-10 12:46 235 7 gusting 13 31.1
2020-Aug-10 12:41 259 11 gusting 13 30.6
2020-Aug-10 12:36 253 8 gusting 10 31.7
2020-Aug-10 12:31 212 6 gusting 8 31.7
2020-Aug-10 12:26 092 2 gusting 7 32.8
2020-Aug-10 12:21 193 6 gusting 10 31.7
2020-Aug-10 12:16 211 4 gusting 7 32.2
2020-Aug-10 12:11 235 6 gusting 8 31.1
2020-Aug-10 12:06 220 4 gusting 8 32.8
2020-Aug-10 12:01 179 2 gusting 8 32.2
2020-Aug-10 11:56 080 1 gusting 6 33.9
2020-Aug-10 11:51 188 2 gusting 6 32.8
2020-Aug-10 11:46 205 3 gusting 6 32.8
2020-Aug-10 11:41 196 2 gusting 5 32.8
2020-Aug-10 11:36 171 2 gusting 8 32.2
2020-Aug-10 11:31 219 4 gusting 6 32.2
2020-Aug-10 11:26 119 4 gusting 8 32.2
2020-Aug-10 11:21 189 2 gusting 7 32.2
2020-Aug-10 11:16 250 5 gusting 7 32.2
2020-Aug-10 11:11 116 3 gusting 6 32.2
2020-Aug-10 11:06 137 3 gusting 7 32.2
2020-Aug-10 11:01 182 4 gusting 6 32.2
2020-Aug-10 10:56 199 3 gusting 6 32.2
2020-Aug-10 10:51 171 4 gusting 6 32.2
2020-Aug-10 10:46 140 2 gusting 8 32.8
2020-Aug-10 10:41 217 3 gusting 8 32.8
2020-Aug-10 10:36 125 4 gusting 6 32.2
2020-Aug-10 10:31 103 2 gusting 6 32.8
2020-Aug-10 10:26 182 2 gusting 7 32.8
2020-Aug-10 10:21 147 3 gusting 6 32.8
2020-Aug-10 10:16 204 5 gusting 7 32.8
2020-Aug-10 10:11 215 4 gusting 8 32.2
2020-Aug-10 10:06 220 6 gusting 8 31.7
2020-Aug-10 10:01 185 4 gusting 7 32.2
2020-Aug-10 09:56 222 1 gusting 6 32.8
2020-Aug-10 09:51 220 6 gusting 10 31.7
2020-Aug-10 09:46 213 2 gusting 7 32.2
2020-Aug-10 09:41 217 7 gusting 10 31.7
2020-Aug-10 09:36 204 5 gusting 8 32.2
2020-Aug-10 09:31 247 6 gusting 8 31.7
2020-Aug-10 09:26 177 2 gusting 6 32.8
2020-Aug-10 09:21 199 3 gusting 7 32.2
2020-Aug-10 09:16 159 2 gusting 6 32.8
2020-Aug-10 09:11 170 4 gusting 6 32.8
2020-Aug-10 09:06 167 1 gusting 5 33.3
2020-Aug-10 09:01 177 2 gusting 5 32.8
2020-Aug-10 08:56 184 1 gusting 6 32.8
2020-Aug-10 08:51 216 1 gusting 5 32.2
2020-Aug-10 08:46 252 0 gusting 4 31.7
2020-Aug-10 08:41 253 2 gusting 6 31.7
2020-Aug-10 08:36 240 1 gusting 5 31.7
2020-Aug-10 08:31 292 2 gusting 6 31.1
2020-Aug-10 08:26 246 2 gusting 6 32.2
2020-Aug-10 08:21 292 0 gusting 4 31.7
2020-Aug-10 08:16 301 2 gusting 5 30.6
2020-Aug-10 08:11 266 2 gusting 5 31.1
2020-Aug-10 08:06 251 1 gusting 5 31.1
2020-Aug-10 08:01 263 1 gusting 4 30.6
2020-Aug-10 07:56 313 3 gusting 5 30.0
2020-Aug-10 07:51 308 2 gusting 5 30.0
2020-Aug-10 07:46 287 2 gusting 4 30.0
2020-Aug-10 07:41 278 4 gusting 5 28.9
2020-Aug-10 07:36 242 5 gusting 5 28.9
2020-Aug-10 07:31 265 2 gusting 5 29.4
2020-Aug-10 07:26 235 2 gusting 4 29.4
2020-Aug-10 07:21 295 0 gusting 4 29.4
2020-Aug-10 07:16 237 2 gusting 4 28.9
2020-Aug-10 07:11 279 0 gusting 2 29.4
2020-Aug-10 07:06 290 0 gusting 4 29.4
2020-Aug-10 07:01 294 2 gusting 4 28.3
2020-Aug-10 06:56 298 2 gusting 4 27.8
2020-Aug-10 06:51 298 0 gusting 4 28.3
2020-Aug-10 06:46 263 1 gusting 2 27.2
2020-Aug-10 06:41 282 1 gusting 4 27.2
2020-Aug-10 06:36 299 0 gusting 1 27.2
2020-Aug-10 06:31 294 0 gusting 1 26.7
2020-Aug-10 06:26 306 0 gusting 1 27.2
2020-Aug-10 06:21 305 27.8
2020-Aug-10 06:16 305 27.8
2020-Aug-10 06:11 305 26.7
2020-Aug-10 06:06 305 26.7
2020-Aug-10 06:01 305 26.7
2020-Aug-10 05:56 305 26.1
2020-Aug-10 05:51 305 25.6
2020-Aug-10 05:46 305 0 gusting 1 25.6
2020-Aug-10 05:41 325 0 gusting 0 25.6
2020-Aug-10 05:36 325 25.6
2020-Aug-10 05:31 329 0 gusting 1 25.0
2020-Aug-10 05:26 313 1 gusting 6 25.0
2020-Aug-10 05:21 307 3 gusting 6 24.4
2020-Aug-10 05:16 319 1 gusting 4 24.4
2020-Aug-10 05:11 334 23.9
2020-Aug-10 05:06 308 2 gusting 4 23.9
2020-Aug-10 05:01 288 2 gusting 4 23.3
2020-Aug-10 04:56 297 1 gusting 2 24.4
2020-Aug-10 04:51 037 26.1
2020-Aug-10 04:46 055 2 gusting 5 26.1
2020-Aug-10 04:41 065 1 gusting 2 25.6
2020-Aug-10 04:36 065 2 gusting 4 25.6
2020-Aug-10 04:31 068 2 gusting 5 25.6
2020-Aug-10 04:26 067 3 gusting 6 25.0
2020-Aug-10 04:21 094 4 gusting 5 24.4
2020-Aug-10 04:16 108 23.3
2020-Aug-10 04:11 108 24.4
2020-Aug-10 04:06 098 0 gusting 1 25.0
2020-Aug-10 04:01 081 2 gusting 2 25.0
2020-Aug-10 03:56 076 1 gusting 5 25.0
2020-Aug-10 03:51 111 4 gusting 5 24.4
2020-Aug-10 03:46 111 1 gusting 4 23.9
2020-Aug-10 03:41 007 23.3
2020-Aug-10 03:36 007 23.3
2020-Aug-10 03:31 006 23.9
2020-Aug-10 03:26 016 23.9
2020-Aug-10 03:21 016 22.8
2020-Aug-10 03:16 016 22.8
2020-Aug-10 03:11 016 22.8
2020-Aug-10 03:06 016 22.8
2020-Aug-10 03:01 016 23.3
2020-Aug-10 02:56 016 22.8
2020-Aug-10 02:51 311 23.3
2020-Aug-10 02:46 312 24.4
2020-Aug-10 02:41 342 0 gusting 2 24.4
2020-Aug-10 02:31 062 23.9
2020-Aug-10 02:26 062 23.9
2020-Aug-10 02:21 062 23.3
2020-Aug-10 02:16 062 0 gusting 1 23.3
2020-Aug-10 02:11 062 23.3
2020-Aug-10 02:06 062 23.3
2020-Aug-10 02:01 015 22.8
2020-Aug-10 01:56 163 0 gusting 1 24.4
2020-Aug-10 01:51 062 0 gusting 4 25.6
2020-Aug-10 01:46 053 0 gusting 4 23.9
2020-Aug-10 01:41 099 1 gusting 4 23.3
2020-Aug-10 01:36 134 22.8
2020-Aug-10 01:31 134 23.3
2020-Aug-10 01:26 132 23.9
2020-Aug-10 01:21 132 23.3
2020-Aug-10 01:16 146 22.8
2020-Aug-10 01:11 146 23.3
2020-Aug-10 01:06 146 23.9
2020-Aug-10 01:01 154 23.3
2020-Aug-10 00:56 154 23.9
2020-Aug-10 00:51 154 23.9
2020-Aug-10 00:46 154 0 gusting 1 23.9
2020-Aug-10 00:41 145 24.4
2020-Aug-10 00:36 152 0 gusting 2 24.4
2020-Aug-10 00:31 250 23.9
2020-Aug-10 00:26 250 23.9
2020-Aug-10 00:21 250 24.4
2020-Aug-10 00:16 272 24.4
2020-Aug-10 00:11 273 24.4
2020-Aug-10 00:06 273 24.4
2020-Aug-10 00:01 272 24.4
2020-Aug-09 23:56 273 24.4
2020-Aug-09 23:51 273 25.0
2020-Aug-09 23:46 039 26.1
2020-Aug-09 23:41 008 1 gusting 2 26.1
2020-Aug-09 23:36 077 0 gusting 2 26.1
2020-Aug-09 23:31 118 1 gusting 4 25.6
2020-Aug-09 23:26 006 25.6
2020-Aug-09 23:21 006 25.6
2020-Aug-09 23:11 013 1 gusting 2 26.1
2020-Aug-09 23:06 007 0 gusting 1 25.0
2020-Aug-09 23:01 007 25.0
2020-Aug-09 22:56 007 25.0
2020-Aug-09 22:51 007 25.0
2020-Aug-09 22:46 007 25.0
2020-Aug-09 22:41 007 25.0
2020-Aug-09 22:36 007 25.0
2020-Aug-09 22:31 007 25.0
2020-Aug-09 22:26 007 25.6
2020-Aug-09 22:21 007 26.7
2020-Aug-09 22:16 012 26.7
2020-Aug-09 22:11 025 0 gusting 4 26.1
2020-Aug-09 22:06 017 1 gusting 4 25.0
2020-Aug-09 22:01 246 25.0
2020-Aug-09 21:56 246 0 gusting 2 25.0
2020-Aug-09 21:51 201 26.1
2020-Aug-09 21:46 149 26.1
2020-Aug-09 21:41 149 26.1
2020-Aug-09 21:36 149 0 gusting 1 25.6
2020-Aug-09 21:31 149 25.0
2020-Aug-09 21:26 149 25.0
2020-Aug-09 21:21 159 25.0
2020-Aug-09 21:16 057 26.1
2020-Aug-09 21:11 057 0 gusting 1 26.1
2020-Aug-09 21:06 109 25.6
2020-Aug-09 21:01 109 25.6
2020-Aug-09 20:56 109 26.1
2020-Aug-09 20:51 136 0 gusting 1 25.6
2020-Aug-09 20:46 136 0 gusting 1 25.6
2020-Aug-09 20:41 147 0 gusting 2 25.6
2020-Aug-09 20:36 148 0 gusting 1 25.6
2020-Aug-09 20:31 165 27.2
2020-Aug-09 20:26 145 27.2
2020-Aug-09 20:21 199 0 gusting 1 27.2
2020-Aug-09 20:16 133 0 gusting 2 27.8
2020-Aug-09 20:11 016 1 gusting 5 28.3
2020-Aug-09 20:06 022 2 gusting 5 28.3
2020-Aug-09 20:01 053 1 gusting 5 28.9
2020-Aug-09 19:56 024 0 gusting 1 28.9
2020-Aug-09 19:51 025 0 gusting 2 28.9
2020-Aug-09 19:46 015 4 gusting 5 28.9
2020-Aug-09 19:41 013 2 gusting 6 28.9
2020-Aug-09 19:36 348 2 gusting 5 28.9
2020-Aug-09 19:31 014 2 gusting 4 28.9
2020-Aug-09 19:26 029 2 gusting 4 28.3
2020-Aug-09 19:21 019 0 gusting 1 28.3
2020-Aug-09 19:16 019 0 gusting 1 28.3
2020-Aug-09 19:11 008 0 gusting 1 27.8
2020-Aug-09 19:07 331 27.8
2020-Aug-09 19:02 331 28.3
2020-Aug-09 18:57 331 28.3
2020-Aug-09 18:52 331 28.9
2020-Aug-09 18:47 331 0 gusting 4 28.9
2020-Aug-09 18:42 337 28.9
2020-Aug-09 18:37 339 28.9
2020-Aug-09 18:32 032 0 gusting 5 28.9
2020-Aug-09 18:27 004 1 gusting 4 29.4
2020-Aug-09 18:22 014 1 gusting 4 29.4
2020-Aug-09 18:17 041 2 gusting 5 29.4
2020-Aug-09 18:12 030 3 gusting 6 29.4
2020-Aug-09 18:07 029 1 gusting 4 29.4
2020-Aug-09 18:02 016 4 gusting 6 29.4
2020-Aug-09 17:57 042 1 gusting 2 29.4
2020-Aug-09 17:52 052 0 gusting 2 29.4
2020-Aug-09 17:47 073 29.4
2020-Aug-09 17:42 107 29.4
2020-Aug-09 17:37 146 1 gusting 4 29.4
2020-Aug-09 17:32 016 30.0
2020-Aug-09 17:27 315 29.4
2020-Aug-09 17:22 306 0 gusting 1 30.0
2020-Aug-09 17:17 128 30.0
2020-Aug-09 17:12 131 30.0
2020-Aug-09 17:07 131 30.0
2020-Aug-09 17:02 139 29.4
2020-Aug-09 16:57 141 30.0
2020-Aug-09 16:52 120 30.0
2020-Aug-09 16:47 152 0 gusting 1 30.0
2020-Aug-09 16:42 197 30.0
2020-Aug-09 16:37 316 1 gusting 6 28.9
2020-Aug-09 16:32 340 4 gusting 6 28.9
2020-Aug-09 16:27 339 5 gusting 8 28.9
2020-Aug-09 16:22 336 3 gusting 6 28.9
2020-Aug-09 16:17 336 1 gusting 7 28.9
2020-Aug-09 16:12 353 2 gusting 7 28.9
2020-Aug-09 16:07 348 5 gusting 6 28.9
2020-Aug-09 16:02 002 5 gusting 7 28.9
2020-Aug-09 15:57 353 5 gusting 8 28.9
2020-Aug-09 15:52 338 5 gusting 8 28.9
2020-Aug-09 15:47 28.9
2020-Aug-09 15:42 303 7 gusting 10 28.9
2020-Aug-09 15:37 301 7 gusting 12 28.9
2020-Aug-09 15:32 316 6 gusting 13 28.9
2020-Aug-09 15:27 256 7 gusting 12 28.9
2020-Aug-09 15:22 310 8 gusting 12 28.9
2020-Aug-09 15:17 299 8 gusting 13 28.9
2020-Aug-09 15:12 301 11 gusting 13 28.3
2020-Aug-09 15:07 300 11 gusting 15 28.3
2020-Aug-09 15:02 304 12 gusting 15 29.4
2020-Aug-09 14:57 286 7 gusting 13 30.0
2020-Aug-09 14:52 292 7 gusting 12 29.4
2020-Aug-09 14:47 271 6 gusting 11 29.4
2020-Aug-09 14:42 230 5 gusting 10 29.4
2020-Aug-09 14:37 259 7 gusting 10 28.9
2020-Aug-09 14:32 237 6 gusting 11 30.0
2020-Aug-09 14:27 234 8 gusting 11 29.4
2020-Aug-09 14:22 244 6 gusting 11 29.4
2020-Aug-09 14:17 235 7 gusting 12 29.4
2020-Aug-09 14:12 236 4 gusting 8 30.0
2020-Aug-09 14:07 197 2 gusting 6 30.0
2020-Aug-09 14:02 211 4 gusting 6 30.0
2020-Aug-09 13:57 135 2 gusting 5 30.6
2020-Aug-09 13:52 192 1 gusting 10 30.6
2020-Aug-09 13:47 145 6 gusting 10 30.0
2020-Aug-09 13:42 161 3 gusting 7 31.1
2020-Aug-09 13:37 207 5 gusting 8 31.1
2020-Aug-09 13:32 217 4 gusting 8 31.1
2020-Aug-09 13:27 199 4 gusting 12 31.7
2020-Aug-09 13:22 227 6 gusting 12 31.7
2020-Aug-09 13:17 223 8 gusting 12 31.7
2020-Aug-09 13:12 232 8 gusting 14 32.2
2020-Aug-09 13:07 225 10 gusting 14 32.2
2020-Aug-09 13:02 225 6 gusting 12 32.2